FW2726 Weather Reports


Display with metric or nautical units.
time (UTC)temp
F
wind
direction
speed
MPH
gust
MPH
rain 1hr
in
rain 24hr
in
rain mn
in
humidity
%
barometer
mb
20260906001606 61 60 4.0 13.0 0.00 0.42 0.00 85 1019.2
20260906000105 62 35 7.0 11.0 0.00 0.42 0.00 85 1019.1
20260905234618 62 46 8.0 13.0 0.00 0.42 0.00 84 1018.9
20260905233104 62 16 5.0 10.0 0.00 0.42 0.00 84 1018.9
20260905231624 62 31 6.0 14.0 0.00 0.42 0.00 83 1018.7
20260905230108 62 21 6.0 11.0 0.00 0.42 0.00 83 1018.6
20260905224610 63 43 6.0 10.0 0.00 0.42 0.00 82 1018.8
20260905223107 63 19 7.0 12.0 0.00 0.42 0.00 82 1018.6
20260905221608 63 74 7.0 12.0 0.00 0.42 0.00 82 1018.4
20260905220108 63 31 7.0 13.0 0.00 0.42 0.00 82 1018.3
20260905214613 64 56 10.0 17.0 0.00 0.42 0.00 82 1018.1
20260905213117 64 38 10.0 16.0 0.00 0.42 0.00 83 1017.7
20260905211607 63 58 11.0 15.0 0.00 0.42 0.00 85 1017.8
20260905210109 63 73 9.0 15.0 0.00 0.42 0.00 87 1017.9
20260905204609 63 64 7.0 12.0 0.00 0.42 0.00 86 1018.1
20260905203110 63 40 9.0 12.0 0.00 0.42 0.00 86 1017.8
20260905201608 63 49 7.0 11.0 0.00 0.42 0.00 86 1018.0
20260905200108 63 70 5.0 11.0 0.00 0.42 0.00 87 1018.6
20260905194608 62 37 5.0 10.0 0.00 0.42 0.00 90 1018.6
20260905193103 61 20 6.0 12.0 0.00 0.42 0.00 92 1018.4
20260905191615 60 29 7.0 13.0 0.00 0.42 0.00 94 1018.2
20260905190107 60 35 8.0 13.0 0.00 0.42 0.00 96 1018.3
20260905184623 59 38 4.0 8.0 0.00 0.42 0.00 97 1018.6
20260905183106 59 21 3.0 6.0 0.00 0.42 0.00 97 1019.0
20260905181611 58 23 3.0 9.0 0.00 0.42 0.00 97 1018.8
20260905180115 58 47 6.0 10.0 0.00 0.42 0.00 97 1018.4
20260905174622 58 26 5.0 10.0 0.00 0.42 0.00 97 1018.4
20260905173113 57 42 5.0 10.0 0.00 0.42 0.00 97 1018.0
20260905171606 57 359 7.0 11.0 0.00 0.42 0.00 97 1017.9
20260905170106 56 52 6.0 13.0 0.00 0.42 0.00 97 1017.7
20260905164609 55 35 6.0 12.0 0.00 0.42 0.00 97 1017.7
20260905163109 55 29 6.0 12.0 0.00 0.42 0.00 97 1017.6
20260905161608 55 27 7.0 14.0 0.00 0.42 0.00 96 1017.3
20260905160110 56 51 8.0 12.0 0.00 0.42 0.00 96 1017.2
20260905154609 56 17 9.0 13.0 0.00 0.42 0.00 97 1017.1
20260905153120 56 11 8.0 12.0 0.00 0.42 0.00 97 1016.9
20260905151609 55 28 8.0 12.0 0.00 0.42 0.00 97 1016.7
20260905150105 55 20 8.0 13.0 0.00 0.42 0.00 97 1016.2
20260905144611 54 12 7.0 12.0 0.00 0.42 0.00 96 1016.1
20260905143109 54 18 6.0 11.0 0.00 0.42 0.00 96 1016.2
20260905141615 53 4 4.0 10.0 0.00 0.42 0.00 96 1016.3
20260905140109 52 359 4.0 8.0 0.00 0.42 0.00 96 1016.3
20260905134615 50 17 2.0 5.0 0.00 0.42 0.00 96 1015.9
20260905133106 49 0 0.0 2.0 0.00 0.42 0.00 95 1015.7
20260905131608 49 351 1.0 3.0 0.00 0.42 0.00 95 1015.4
20260905130117 49 351 0.0 1.0 0.00 0.42 0.00 95 1015.1
20260905124611 49 351 2.0 4.0 0.00 0.42 0.00 95 1014.7
20260905123109 49 354 2.0 4.0 0.00 0.42 0.00 95 1014.6
20260905121606 49 0 0.0 0.0 0.00 0.42 0.00 95 1014.6
20260905120108 49 0 0.0 0.0 0.00 0.42 0.00 95 1014.6
20260905114637 49 0 0.0 0.0 0.00 0.42 0.00 95 1014.7
20260905113108 50 0 0.0 0.0 0.00 0.42 0.00 95 1014.3
20260905111606 50 0 0.0 0.0 0.00 0.42 0.00 95 1014.0
20260905110106 50 0 0.0 0.0 0.00 0.42 0.00 95 1013.7
20260905104606 51 0 0.0 0.0 0.00 0.42 0.00 95 1013.7
20260905103109 51 0 0.0 0.0 0.00 0.42 0.00 95 1013.9
20260905101607 51 25 2.0 5.0 0.00 0.42 0.00 95 1013.8
20260905100118 51 27 3.0 7.0 0.00 0.42 0.00 95 1013.8
20260905094625 52 35 3.0 8.0 0.00 0.42 0.00 94 1013.5
20260905093107 52 18 5.0 10.0 0.00 0.42 0.00 94 1013.8
20260905091616 52 31 3.0 9.0 0.00 0.42 0.00 94 1014.0
20260905090109 53 351 4.0 8.0 0.00 0.42 0.00 94 1014.0
20260905084604 53 4 4.0 10.0 0.00 0.42 0.00 94 1014.0
20260905083107 54 18 4.0 9.0 0.00 0.42 0.00 94 1013.9
20260905081607 54 45 5.0 9.0 0.00 0.42 0.00 94 1013.7
20260905080106 54 31 4.0 11.0 0.00 0.42 0.00 94 1013.7
20260905074606 54 12 6.0 12.0 0.00 0.42 0.00 93 1013.7
20260905073111 54 351 5.0 10.0 0.00 0.42 0.00 93 1013.8
20260905071612 55 18 3.0 6.0 0.00 0.42 0.00 93 1013.5
20260905070111 55 32 2.0 6.0 0.00 0.42 0.00 93 1013.3
20260905064616 56 30 3.0 5.0 0.00 0.42 0.00 93 1013.1
20260905063117 56 48 3.0 6.0 0.01 0.42 0.00 93 1013.0
20260905061622 57 23 3.0 8.0 0.01 0.42 0.00 93 1012.6
20260905060108 57 40 4.0 14.0 0.01 0.42 0.00 93 1012.5
20260905054621 57 8 5.0 16.0 0.02 0.42 0.42 93 1012.4
20260905053109 58 130 12.0 19.0 0.08 0.41 0.41 93 1011.9
20260905051612 58 127 12.0 17.0 0.14 0.41 0.41 93 1011.7
20260905050112 58 104 15.0 24.0 0.19 0.41 0.41 93 1011.4
20260905044611 57 104 15.0 21.0 0.23 0.40 0.40 92 1012.5
20260905043106 57 133 3.0 9.0 0.20 0.33 0.33 92 1014.3
20260905041605 57 147 5.0 9.0 0.18 0.27 0.27 91 1013.9
20260905040110 58 87 2.0 4.0 0.15 0.22 0.22 90 1014.3
20260905034614 58 0 0.0 3.0 0.11 0.17 0.17 90 1014.3
20260905033111 58 346 2.0 4.0 0.07 0.13 0.13 90 1013.6
20260905031616 58 224 1.0 4.0 0.05 0.09 0.09 89 1013.6
20260905030112 59 316 3.0 8.0 0.03 0.07 0.07 88 1013.5
20260905024609 59 73 3.0 5.0 0.03 0.06 0.06 88 1012.4
20260905023137 59 312 2.0 4.0 0.03 0.06 0.06 88 1012.0
20260905021605 59 62 3.0 9.0 0.01 0.04 0.04 88 1011.0
20260905020108 60 49 4.0 6.0 0.01 0.04 0.04 86 1011.1
20260905014616 60 102 4.0 7.0 0.01 0.03 0.03 85 1011.3
20260905013104 61 83 4.0 8.0 0.03 0.03 0.03 83 1011.1
20260905011609 62 74 4.0 8.0 0.03 0.03 0.03 82 1010.8
20260905010107 63 27 4.0 11.0 0.03 0.03 0.03 81 1010.8
20260905004612 65 95 11.0 15.0 0.02 0.02 0.02 77 1010.4
20260905003106 67 149 3.0 5.0 0.00 0.00 0.00 71 1012.4